Starlink 32870

operational
NORAD ID: 63018 Int'l Des: 2025-032 Owner: SPXS Country: US Constellation: starlink
LEOCIRCULAR

Über Starlink 32870

Beschreibung wird geladen...

Live-Position

3D-Globus wird geladen...

Nächste Überflüge

Höhenverlauf

Altitude vs Time

uPlot chart will show altitude changes over time

Zweizeiliger Elementsatz

1 63018U 25032P 25352.57439042 .00018143 00000-0 66679-3 0 9995
2 63018 43.0016 74.2167 0001597 268.3740 91.6928 15.27600618 48219
Epoch: 18. Dez. 2025 • Age: 15 hours

Aktueller Status

Höhe 485.6 km
Geschwindigkeit 7.62 km/s
Subsatellitenpunkt -15.62°S, 108.09°E
Startdatum 15. Feb. 2025
Alter 0.8 years
Typ internet

Technische Details

Klassifizierung Payload
Masse 730.00 kg
Trockenmasse 700.00 kg
Gesamtmasse 730.00 kg
Länge 0.30 m
Durchmesser 4.10 m
Spannweite 29.00 m
Form Box + pan
Hersteller SPXS
Bus-Typ Starlink V2M
Phasenstatus In Orbit
Besitzer/Staat SPXS/US

Große Konstellationen

Loading constellations...